Regional Weather Roundup
Issued by NWS

Home | Current Version | Previous Version | Text Only | Print | Product List | Glossary Off
Versions: 1 2 3 4 5 6 7 8 9 10 11 12 13 14 15 16 17 18 19 20 21 22 23 24 25 26 27 28 29 30 31 32 33 34 35 36 37 38 39 40 41 42 43 44 45 46 47 48 49 50

000
ASUS43 KDTX 271910
RWRMI
MICHIGAN HOURLY REGIONAL WEATHER ROUNDUP
NATIONAL WEATHER SERVICE DETROIT/PONTIAC MI
300 PM EDT THU APR 27 2017

NOTE: "FAIR" INDICATES FEW OR NO CLOUDS BELOW 12,000 FEET WITH NO
SIGNIFICANT WEATHER AND/OR OBSTRUCTION TO VISIBILITY.

MIZ047>049-052>055-059>063-066>070-074>076-081>083-272000-
SOUTHEAST LOWER MICHIGAN

CITY           SKY/WX    TMP DP  RH WIND       PRES   REMARKS
ADRIAN         MOSUNNY   62  49  62 SW17G29   29.59R
ALMA           CLOUDY    56  44  64 SW16G29   29.54R
ANN ARBOR      PTSUNNY   67  54  63 S20G29    29.54R
BAD AXE        CLOUDY    69  56  62 SW22G29   29.45S
CARO           MOSUNNY   68  58  70 SW22G31   29.46S
DETROIT CITY   LGT RAIN  67  56  67 SW22G33   29.52R
DETROIT        PTSUNNY   71  55  56 SW29G37   29.54R
FLINT          MOSUNNY   68  53  58 SW22G32   29.50R
GROSSE ILE     CLOUDY    67  55  67 SW15G24   29.53R
HILLSDALE      MOSUNNY   59  45  58 W18G25    29.59R
HOWELL         PTSUNNY   66  49  54 W18G25    29.52R

CITY           SKY/WX    TMP DP  RH WIND       PRES   REMARKS
JACKSON        PTSUNNY   61  48  62 W16G29    29.57R
LAMBERTVILLE   MOSUNNY   65  53  65 SW18G29   29.58R
LANSING        PTSUNNY   59  43  55 W21G32    29.56R
LAPEER         CLOUDY    69  56  63 SW17G32   29.49R
MASON          PTSUNNY   62  47  56 SW17G28   29.55R
MONROE         PTSUNNY   69  55  60 MISG      29.55R
MT. CLEMENS    PTSUNNY   69  60  74 SW18      29.51S
PONTIAC        PTSUNNY   68  55  63 SW21G33   29.50R
PORT HOPE        N/A     69  59  70 S12G18    29.42F
PORT HURON     DRIZZLE   64  57  77 SW13G18   29.52R
TRI CITIES     MOSUNNY   61  47  59 W30G38    29.48R
MIDLAND        FAIR      64  44  48 SW16G30   29.48R
TROY           CLOUDY    67  55  65 SW16G30   29.54R
SAGINAW HB     MOSUNNY   66  48  52 SW23G29   29.47R
$$
MIZ043>046-050>051-056>058-064>065-071>073-077>080-272000-
SOUTHWEST LOWER MICHIGAN

CITY           SKY/WX    TMP DP  RH WIND       PRES   REMARKS
BATTLE CREEK   CLOUDY    54  44  69 SW20G26   29.60R
BENTON HARBOR  CLOUDY    51  39  63 W28G36    29.64R
BIG RAPIDS     CLOUDY    48  40  73 SW18G26   29.52R
COLDWATER      CLOUDY    55  44  64 SW17G23   29.61R
FREMONT        CLOUDY    47  39  75 SW18G28   29.55R
HOLLAND        CLOUDY    49  40  71 SW23G29   29.61R
GRAND RAPIDS   CLOUDY    50  42  74 SW22G29   29.58R
IONIA          CLOUDY    55  42  62 SW22G32   29.57R
KALAMAZOO      CLOUDY    53  42  66 SW15      29.61R
LUDINGTON      CLOUDY    44  39  83 SW23G30   29.52R
MARSHALL       CLOUDY    57  43  59 SW13G24   29.59R
MOUNT PLEASANT PTSUNNY   56  42  61 SW16G29   29.52R
MUSKEGON       CLOUDY    48  40  73 SW18G32   29.58R
SOUTH HAVEN    CLOUDY    49  40  72 SW15G30   29.63R
$$
MIZ016>042-272000-
NORTHERN LOWER MICHIGAN

CITY           SKY/WX    TMP DP  RH WIND       PRES   REMARKS
ALPENA         LGT RAIN  67  56  67 S20G29    29.37S
BEAVER ISLAND  CLOUDY    51  41  69 SW26G39   29.37R
BELLAIRE       CLOUDY    54  42  65 SW13G25   29.42R
CADILLAC       CLOUDY    47  40  77 SW21G26   29.47R
CHARLEVOIX     CLOUDY    56  43  63 SW25G36   29.43R
FRANKFORT      CLOUDY    43  38  84 S14G28    29.47R
GAYLORD        MOSUNNY   67  43  41 S30G37    29.37R
GRAYLING       SUNNY     61  43  51 SW20G26   29.42R
HARBOR SPRINGS PTSUNNY   60  46  60 SW22G32   29.34R
HOUGHTON LAKE  MOSUNNY   59  44  57 SW24G36   29.45R
MANISTEE       CLOUDY    45  39  79 SW15G26   29.49R
OSCODA         CLOUDY    65  58  79 S18G24    29.40R
PELLSTON       CLOUDY    69  46  43 SW24G38   29.32R
ROGERS CITY    LGT RAIN  70  50  49 S15G30    29.34R
TRAVERSE CITY  DRIZZLE   49  44  83 SW10G21   29.43R
$$
MIZ007>008-015-272000-
EASTERN UPPER MICHIGAN

CITY           SKY/WX    TMP DP  RH WIND       PRES   REMARKS
KINROSS        CLOUDY    68  53  58 SE15      29.28F
MACKINAC ISLAN CLOUDY    65  49  55 W14G25    29.31R
NEWBERRY       CLOUDY    58  54  88 S26G40    29.29R
S. S. MARIE    CLOUDY    66  53  63 SE17G28   29.27F
MUNISING         N/A     34  32  92 NW15G28   29.34R WCI  24
$$
MIZ004>006-011>014-085-272000-
CENTRAL UPPER MICHIGAN

CITY           SKY/WX    TMP DP  RH WIND       PRES   REMARKS
MANISTIQUE     FOG       42  42  97 S10       29.30R VSB 1/4
ESCANABA       LGT RAIN  39  37  92 W8        29.37R FOG     WCI  33
MENOMINEE      LGT RAIN  39  37  93 W10       29.42R FOG     WCI  32
SAWYER-GWINN   MIX PCPN  32  32 100 NW6       29.33R WCI  26
$$
MIZ001>003-009>011-084-272000-
WESTERN UPPER MICHIGAN

CITY           SKY/WX    TMP DP  RH WIND       PRES   REMARKS
IRON MOUNTAIN  LGT SNOW  33  29  85 NW15      29.38R VSB 1   WCI  23
HOUGHTON       SNOW      27  23  85 NW20G30   29.37R VSB 1/2 WCI  13
IRONWOOD       LGT SNOW  27  25  93 W15       29.47S VSB 1   WCI  15
$$

ABBREVIATIONS USED IN REMARKS
   TC - TEMPERATURE IN CELSIUS
  WCI - WIND CHILL INDEX
   HX - HEAT INDEX
  VSB - VISIBILITY





USA.gov is the U.S. government's official web portal to all federal, state and local government web resources and services.